User: anonymous   Login
Location: Bremen
(53.0793°N, 8.8017°E)
Time: 22:47:41
(UTC+02:00)
Language:

Courier 1B Rocket - Orbit

View from above orbital plane
View from above orbital plane
View from above satellite
View from above satellite

Ground track
Ground track

The orbit data is extracted from the following two-line orbital elements,

1 00059U 60013B   24102.73431735  .00000157  00000-0  92817-4 0  9990
2 00059  28.2479 255.7573 0188930 109.3023 252.8055 13.53064197135217
Epoch (UTC): 11 April 2024 17:37:25
Eccentricity: 0.0188930
inclination: 28.2479°
perigee height: 920 km
apogee height: 1201 km
right ascension of ascending node: 255.7573°
argument of perigee: 109.3023°
revolutions per day: 13.53064197
mean anomaly at epoch: 252.8055°
orbit number at epoch: 13521

The dashed part of the orbit path shows where the satellite is in the earth's shadow,  

DLR